Location: Grange Rosano
(44.4500°N, 6.9667°E)
Time: 19:42:26
(UTC+00:00)

Cosmos 2369 Rocket - Pass Details

Date: 26 May 2022
Orbit: 830 x 851 km, 71.0° (Epoch: 01 July)

Event Time Altitude Azimuth Distance (km) Brightness Sun altitude
Rises 01:51:05 0° 337° (NNW) 3,384 5.8 -16.9°
Reaches altitude 10° 01:53:35 10° 341° (NNW) 2,446 5.1 -16.6°
Maximum altitude 01:59:07 59° 61° (ENE) 953 2.8 -16.0°
Drops below altitude 10° 02:04:37 10° 141° (SE) 2,432 4.5 -15.5°
Sets 02:07:04 0° 145° (SE) 3,363 5.2 -15.2°
